Zurück zum Katalog

STARLINK-3508

AktivKommunikationVLEO
NORAD 51862·PAYLOAD·🇺🇸 United States

Gestartet Mar 3, 2022 von Cape Canaveral Space Force Station

Loading…

Nächste Überflüge (nächste 24 Stunden)

TLE

AktuellSource: CelesTrak SupGP

Epoche: Sep 15, 2026, 02:05 UTC

1 51862C 22022L   26258.08729167 -.00026812  00000+0 -79215-3 0  2588
2 51862  53.1578 228.6701 0001349  95.3856  47.8881 15.34403959    12

Verfolge STARLINK-3508 in Echtzeit mit AllMySat

Download on the App Store